This demonstration page uses our WeatherBlox Daily Observations layout. Learn more.

Left ArrowRight Arrow

Hourly Observations for March 2, 2021

Temp ( °F °C ) Dew Point ( °F °C ) Humidity (%) Winds ( mph kmh ) Pressure ( in mb ) Visibility ( mi km ) Precip ( " mm )
12:51 am 00:51 Clear 45 7.2 17 -8.3 33 33 SSE 12 19 30.19 1022 10 16 N/A
1:51 am 01:51 Clear 42 5.6 18 -7.8 38 38 SSE 9 15 30.19 1022 10 16 N/A
2:51 am 02:51 Clear 43 6.1 20 -6.7 40 40 SE 12 19 30.16 1021 10 16 N/A
3:51 am 03:51 Clear 40 4.4 20 -6.7 45 45 SSE 12 19 30.14 1021 10 16 N/A
4:51 am 04:51 Clear 39 3.9 20 -6.7 46 46 SSE 9 15 30.14 1021 10 16 N/A
5:51 am 05:51 Clear 39 3.9 20 -6.7 46 46 SSE 14 22 30.14 1021 10 16 N/A
6:51 am 06:51 Sunny 40 4.4 20 -6.7 45 45 SSE 14 22 30.15 1021 10 16 N/A
7:51 am 07:51 Sunny 43 6.1 21 -6.1 42 42 SSE 14 22 30.17 1022 10 16 N/A
8:51 am 08:51 Sunny 50 10 21 -6.1 32 32 E 14 22 30.16 1022 10 16 N/A
9:51 am 09:51 Sunny 54 12.2 20 -6.7 26 26 SE 21 33 30.15 1021 10 16 N/A
10:51 am 10:51 Sunny 57 13.9 20 -6.7 24 24 SE 13 20 30.13 1020 10 16 N/A
11:51 am 11:51 Sunny 62 16.7 16 -8.9 17 17 ESE 20 31 30.08 1019 10 16 N/A
12:51 pm 12:51 Sunny 64 17.8 15 -9.4 15 15 ESE 17 28 30.02 1017 10 16 N/A
1:51 pm 13:51 Sunny 66 18.9 14 -10 13 13 SSE 18 30 29.98 1015 10 16 N/A
2:51 pm 14:51 Sunny 67 19.4 14 -10 13 13 SE 13 20 29.94 1014 10 16 N/A
3:51 pm 15:51 Sunny 67 19.4 14 -10 13 13 SE 13 20 29.93 1013 10 16 N/A
4:51 pm 16:51 Sunny 67 19.4 12 -11.1 12 12 ESE 10 17 29.91 1013 10 16 N/A
5:51 pm 17:51 Sunny 65 18.3 11 -11.7 12 12 E 14 22 29.91 1013 10 16 N/A
6:51 pm 18:51 Clear 60 15.6 11 -11.7 14 14 E 10 17 29.93 1014 10 16 N/A
7:51 pm 19:51 Clear 58 14.4 11 -11.7 15 15 E 12 19 29.94 1014 10 16 N/A
8:51 pm 20:51 Clear 58 14.4 11 -11.7 15 15 E 13 20 29.94 1014 10 16 N/A
9:51 pm 21:51 Clear 51 10.6 11 -11.7 20 20 S 10 17 29.96 1015 10 16 N/A
10:51 pm 22:51 Clear 51 10.6 11 -11.7 20 20 SSE 10 17 29.96 1015 10 16 N/A
11:51 pm 23:51 Clear 51 10.6 11 -11.7 20 20 SE 12 19 29.95 1014 10 16 N/A

Powered by AerisWeather